Wind_Speed
19 19 18 18 18 17 17 17 17 15 14 12 11 9 8 7 7 6 7 7 6 5 5 5 6 6 7 8 8 7 7 8 7 7 7 7 8 8 10 10 10 10 10 9 8 7 8 7 6
19 19 19 19 19 18 18 17 17 16 14 13 11 10 9 8 8 8 7 7 6 6 6 6 6 6 7 7 7 7 7 6 6 6 6 6 6 6 8 8 8 9 8 8 7 6 7 7 6
20 19 19 18 18 18 18 17 17 16 15 14 12 11 9 9 8 8 7 7 7 6 6 6 6 6 7 7 6 6 6 6 6 6 7 6 6 6 7 7 7 7 7 7 6 7 6 6 6
20 20 18 18 18 18 18 17 17 16 15 14 13 12 10 9 8 8 8 8 7 6 7 7 7 7 7 6 7 6 6 6 6 7 7 7 6 6 6 6 6 6 6 5 5 5 6 5 5
19 19 19 19 19 19 19 18 18 17 16 14 14 13 11 10 9 9 8 8 8 7 8 8 8 8 8 7 7 7 6 6 6 6 7 6 6 6 5 5 5 5 4 4 4 4 5 4 4
18 19 20 20 20 20 20 19 20 19 16 15 14 13 12 11 10 9 9 9 9 8 9 8 8 7 7 7 7 7 6 6 6 6 6 6 5 5 4 5 4 4 4 3 3 4 4 4 5
18 19 20 20 21 20 20 20 21 19 17 16 14 13 12 12 11 10 9 9 9 9 9 8 8 8 7 7 7 7 6 6 6 6 5 5 5 4 4 4 3 3 3 2 2 3 3 4 5
17 19 20 20 21 21 20 19 19 18 16 16 15 14 13 13 11 11 10 10 9 9 9 8 8 8 8 8 7 7 7 7 6 6 5 5 5 4 4 3 3 3 2 2 2 2 3 3 4
16 18 20 20 20 20 20 19 18 17 17 15 15 14 13 12 11 11 10 10 10 9 9 9 9 9 8 7 7 6 6 6 5 5 6 5 5 4 3 3 2 2 2 2 3 3 3 3 4
15 16 18 18 19 19 19 19 18 17 16 15 15 14 13 13 12 11 11 10 10 10 10 9 9 9 8 7 6 5 5 5 5 5 5 5 4 3 3 2 2 2 2 3 3 3 3 3 4
13 14 16 17 18 18 18 19 18 17 16 15 15 14 13 13 12 12 11 11 10 10 10 10 9 9 8 7 6 5 5 5 4 4 4 3 3 3 2 2 2 2 2 3 3 2 3 3 5
11 12 13 15 16 17 17 17 18 17 16 15 15 14 14 13 12 11 11 11 10 10 10 9 10 9 9 7 5 5 4 3 3 3 3 2 2 2 2 2 2 2 2 2 3 3 3 3 5
8 10 11 13 15 15 16 16 16 16 15 15 14 14 13 13 13 12 11 11 11 11 10 10 10 10 9 8 6 5 4 4 3 3 3 2 2 2 2 2 2 2 2 2 2 2 3 3 5
6 8 10 11 13 14 14 15 15 14 14 14 13 14 13 13 13 12 11 12 11 11 10 10 10 9 9 8 7 6 5 5 4 3 3 3 2 1 1 1 1 1 2 1 2 2 2 3 4
5 6 8 10 11 12 12 12 13 13 12 12 13 14 13 12 12 12 12 11 10 10 10 10 9 9 8 8 8 8 6 5 4 4 3 3 2 1 1 1 1 1 1 1 2 2 2 3 3
3 5 6 7 8 9 10 11 11 11 11 11 11 12 13 13 12 11 11 10 10 9 9 9 8 8 8 7 7 7 7 6 5 4 3 3 2 2 1 1 0 1 1 1 2 2 2 3 4
3 3 4 4 5 6 7 8 8 8 9 9 10 11 11 11 12 11 10 9 8 9 9 9 8 7 6 6 6 6 6 5 4 4 3 3 2 2 1 0 0 1 1 2 3 3 4 4 4
5 4 3 2 3 4 5 6 6 7 7 7 8 9 10 10 10 10 10 8 7 7 8 9 8 7 6 6 5 5 5 4 3 3 3 2 1 2 2 1 1 1 2 3 4 4 5 5 6
8 6 4 2 0 1 2 3 4 5 5 6 6 7 8 8 9 8 8 8 7 7 8 8 9 8 7 6 5 5 4 4 3 2 2 1 1 2 2 2 2 2 3 4 5 5 6 7 7
10 8 6 4 3 2 2 2 2 4 5 5 5 6 6 6 7 7 7 8 7 6 6 7 8 8 7 7 6 5 4 3 3 3 2 3 2 2 3 3 3 3 4 5 5 6 6 7 8
12 10 8 7 6 4 5 4 3 3 4 5 5 5 5 4 5 5 5 6 5 5 5 5 6 6 6 6 5 4 4 3 2 2 3 3 3 3 3 3 4 5 5 5 6 6 6 7 8
15 13 11 10 9 7 6 5 4 4 4 5 5 5 4 3 4 4 4 4 4 4 3 4 5 5 5 5 4 5 4 3 2 2 2 2 3 4 4 4 5 5 5 6 7 7 7 8 9
17 16 15 13 11 9 8 7 6 6 5 6 6 5 4 4 4 4 4 3 3 3 3 4 4 5 5 5 4 5 4 4 3 2 2 2 3 4 4 4 5 6 6 6 7 8 8 9 9
20 19 18 16 14 12 9 9 7 7 7 7 7 6 5 5 4 4 4 4 3 3 3 4 4 5 5 5 5 5 4 4 4 3 3 3 4 5 5 5 6 6 7 7 8 8 8 9 9
22 21 20 19 17 15 12 12 10 8 8 8 8 8 6 6 5 4 4 5 4 3 3 3 4 5 4 4 5 5 5 5 5 5 5 5 5 6 6 7 7 8 8 8 9 9 9 10 11
23 23 22 21 20 17 16 14 11 10 10 10 10 8 7 6 6 5 5 5 4 4 4 4 4 4 5 4 5 5 5 5 6 6 6 6 7 7 8 8 9 9 9 9 10 10 10 11 12
26 25 23 23 22 20 18 15 13 12 11 10 9 9 8 8 8 7 6 6 6 5 5 5 5 5 5 5 5 6 6 6 7 7 7 8 8 9 9 10 10 10 11 11 11 11 12 12 13
28 26 25 24 23 22 20 17 15 14 12 11 10 9 9 9 10 9 8 7 7 7 7 7 7 6 6 6 7 7 7 8 8 8 9 9 10 10 11 11 12 12 13 13 12 12 12 13 13
28 28 26 25 24 23 21 19 16 15 14 13 12 12 11 10 10 11 10 9 8 9 9 9 8 8 8 7 8 8 9 9 9 10 10 11 11 12 12 13 14 14 14 13 14 14 14 14 14
28 28 27 27 25 24 23 20 17 16 14 13 13 12 12 12 12 11 11 10 10 11 10 10 10 10 9 9 9 10 11 11 11 11 12 12 12 13 14 15 15 14 14 15 15 16 16 16 16
Wind_Direction
65 65 64 64 64 64 66 66 65 64 62 61 65 72 75 80 88 95 98 103 111 110 117 132 133 125 121 121 119 116 123 128 123 118 116 118 121 129 137 137 137 136 137 139 141 144 149 153 162
66 66 64 64 64 64 64 63 62 61 60 61 64 70 72 78 88 95 102 109 110 107 113 123 129 124 122 122 120 116 119 127 125 125 129 127 125 126 138 140 137 131 131 134 141 143 147 155 160
67 65 64 65 65 62 61 61 60 59 60 62 64 66 69 76 86 95 100 105 108 109 112 114 117 121 122 119 120 119 120 122 124 125 129 135 127 126 130 137 135 133 133 135 135 134 142 160 167
66 63 64 64 64 63 60 59 59 57 57 60 63 65 69 73 82 89 93 95 102 107 112 108 113 117 119 116 116 119 122 128 129 124 127 128 126 127 127 131 137 138 138 138 143 143 150 164 166
66 63 64 63 63 62 61 61 59 56 54 56 62 65 71 74 79 86 93 94 99 105 112 108 108 110 109 108 108 113 120 129 133 131 130 128 126 127 129 139 145 139 140 142 146 157 161 171 175
66 64 62 61 61 60 60 60 58 55 53 55 60 62 69 71 78 86 92 96 99 103 105 103 102 105 107 107 109 110 114 126 132 132 132 133 133 133 134 140 142 141 147 149 159 168 174 187 190
66 64 61 60 59 59 58 56 55 53 52 53 58 64 66 70 78 82 88 94 97 100 103 101 102 105 106 109 108 109 112 120 126 127 131 133 132 134 138 141 144 153 157 160 165 184 199 207 208
67 64 61 59 58 55 56 55 54 52 51 52 57 66 68 70 74 81 87 90 95 98 99 99 101 104 105 109 108 111 115 120 121 122 127 136 140 143 154 158 151 158 167 184 185 187 213 225 212
70 65 62 59 58 55 55 56 54 51 51 54 58 64 68 68 72 80 86 87 92 96 98 97 97 96 100 104 106 108 113 117 124 132 137 139 146 154 160 165 161 166 180 196 201 204 217 222 217
72 67 63 61 60 57 56 56 54 51 52 55 59 63 65 67 71 77 81 87 91 94 96 94 92 91 93 95 100 107 111 118 126 138 141 143 147 157 165 177 185 184 202 212 223 223 230 233 233
79 69 65 64 62 59 57 54 53 52 52 54 57 61 63 65 69 75 79 83 86 92 94 92 90 90 90 92 99 101 106 112 112 122 135 139 146 150 150 160 179 192 213 223 230 234 242 246 251
86 78 71 65 62 60 57 53 53 52 52 54 57 61 63 65 68 72 73 75 82 88 91 91 84 84 86 87 95 94 97 103 101 105 111 127 153 164 163 167 185 210 227 235 245 245 247 259 264
92 83 75 68 63 60 56 54 52 50 48 52 55 58 60 64 65 71 74 75 80 83 87 84 81 79 79 78 77 80 83 89 93 96 101 109 141 170 183 192 204 221 235 250 258 246 251 263 265
98 90 80 73 63 60 58 56 53 49 47 48 51 53 56 58 62 66 70 72 74 80 84 83 79 77 74 70 69 73 79 82 95 99 95 100 113 147 174 196 215 228 236 250 261 263 264 256 256
106 101 88 77 70 63 58 55 54 51 48 49 51 53 55 55 58 63 68 70 70 74 79 80 77 75 74 67 63 69 77 81 88 85 89 99 105 116 152 173 199 221 231 244 259 272 286 275 259
134 113 98 83 74 68 62 55 52 54 51 51 51 54 58 57 57 61 66 66 68 68 69 72 73 72 71 66 63 66 73 78 78 70 75 92 101 98 100 106 170 207 247 270 265 277 283 286 282
175 140 116 89 75 69 61 56 50 47 47 49 50 53 57 57 55 54 59 64 64 63 66 67 67 68 67 63 62 68 71 74 73 64 68 86 85 73 63 54 278 250 261 268 269 270 279 283 292
203 180 161 124 79 73 63 48 37 34 36 39 46 52 53 56 55 52 54 60 65 64 64 60 59 60 59 58 53 61 67 65 64 62 57 63 61 44 14 360 331 295 284 289 286 276 276 280 286
213 206 197 206 9 49 59 41 27 20 24 25 36 46 51 54 55 52 52 53 59 63 60 52 54 54 54 52 48 54 51 47 49 49 48 31 27 18 352 352 331 314 298 295 297 283 276 278 283
216 213 213 228 253 275 308 338 350 355 14 16 21 28 40 47 50 49 49 50 52 54 47 50 54 52 52 49 47 44 40 31 28 16 14 13 0 350 341 338 324 317 317 307 300 294 284 279 282
218 217 219 231 237 257 292 299 304 324 344 357 3 13 22 26 37 39 37 35 34 34 34 43 47 45 45 43 40 37 30 23 22 7 5 7 1 346 332 319 315 313 313 311 304 297 293 290 289
222 221 225 236 245 258 274 290 289 303 321 336 339 343 1 358 1 13 23 21 22 16 24 26 33 32 35 36 33 26 29 24 15 14 17 9 352 341 335 319 309 306 306 304 300 295 293 292 289
222 224 229 236 249 257 265 278 296 302 308 314 322 328 333 331 323 329 331 339 356 357 3 10 6 14 20 24 20 15 15 11 11 3 353 337 330 328 326 321 315 313 313 309 303 297 292 292 291
224 227 231 238 246 252 261 270 282 298 305 306 309 309 309 313 307 304 308 325 329 339 351 350 343 347 359 359 359 357 349 340 343 332 318 316 311 309 310 313 313 315 314 312 312 305 299 299 296
226 230 235 241 246 252 257 264 272 285 297 298 297 299 296 299 303 300 309 321 314 314 312 315 322 330 338 341 343 345 341 335 329 323 308 307 307 305 304 306 305 307 309 310 307 303 299 296 294
228 232 239 247 252 254 257 263 268 280 288 290 291 295 292 291 294 292 293 296 292 289 290 301 310 313 316 320 325 330 331 332 329 325 317 307 303 302 303 306 306 304 302 302 301 300 298 295 293
228 231 237 245 251 254 258 261 263 275 281 281 286 292 296 288 284 284 283 290 281 277 284 298 307 311 312 311 310 312 314 317 317 314 312 307 300 297 298 302 305 305 304 302 300 300 297 294 293
229 232 236 242 248 255 258 260 266 270 274 277 285 290 291 284 280 283 283 286 277 273 280 292 300 304 305 302 301 302 302 303 307 307 306 304 301 298 296 297 300 302 301 301 301 300 299 295 292
229 231 234 241 247 253 258 261 265 271 276 278 281 286 284 283 283 282 283 283 277 271 276 283 288 293 295 291 291 292 293 295 301 305 306 307 305 301 298 295 295 295 299 301 301 301 299 297 296
232 233 236 241 247 251 257 259 261 265 272 280 283 285 281 280 278 279 281 280 275 273 273 276 281 285 287 286 287 284 289 291 294 298 301 305 306 303 302 298 295 296 298 301 300 300 298 297 295
Height
5870 5869 5869 5869 5868 5866 5864 5863 5861 5861 5861 5860 5859 5859 5859 5860 5861 5863 5862 5861 5862 5862 5863 5863 5864 5864 5865 5865 5865 5866 5866 5867 5869 5870 5871 5871 5871 5872 5872 5873 5874 5876 5877 5878 5879 5880 5881 5882 5884
5873 5872 5872 5871 5869 5867 5867 5865 5864 5863 5863 5862 5861 5860 5860 5860 5861 5861 5861 5862 5863 5863 5864 5864 5865 5865 5866 5866 5866 5867 5868 5869 5870 5871 5872 5872 5873 5874 5875 5875 5876 5877 5879 5880 5881 5881 5882 5883 5885
5876 5875 5875 5873 5871 5870 5869 5867 5866 5865 5864 5863 5863 5862 5862 5862 5862 5862 5862 5863 5864 5865 5865 5865 5865 5866 5867 5867 5868 5868 5869 5870 5871 5872 5873 5873 5874 5875 5876 5877 5878 5879 5880 5881 5882 5882 5883 5884 5885
5879 5878 5877 5876 5873 5872 5871 5869 5868 5867 5866 5865 5864 5864 5863 5863 5863 5864 5864 5864 5865 5865 5866 5866 5865 5867 5868 5868 5869 5869 5870 5871 5872 5873 5874 5874 5875 5876 5877 5878 5879 5880 5881 5882 5883 5883 5884 5885 5886
5881 5881 5879 5877 5876 5874 5873 5872 5870 5869 5868 5867 5866 5866 5865 5865 5865 5865 5865 5866 5866 5867 5867 5867 5867 5868 5869 5869 5870 5870 5871 5872 5873 5874 5875 5875 5876 5877 5878 5879 5880 5881 5882 5882 5883 5884 5885 5886 5886
5884 5883 5881 5879 5878 5876 5875 5874 5872 5871 5871 5869 5869 5868 5867 5867 5867 5867 5867 5867 5867 5868 5868 5868 5868 5869 5870 5870 5871 5871 5872 5873 5874 5874 5875 5876 5877 5878 5878 5879 5880 5881 5882 5883 5883 5884 5885 5886 5886
5887 5885 5883 5882 5880 5879 5878 5876 5874 5874 5873 5872 5871 5870 5869 5869 5869 5869 5869 5869 5869 5869 5869 5870 5870 5870 5871 5871 5872 5872 5873 5873 5874 5875 5876 5877 5877 5878 5879 5880 5881 5882 5883 5883 5884 5885 5885 5886 5886
5888 5888 5885 5884 5882 5881 5880 5878 5877 5877 5876 5875 5873 5872 5871 5871 5871 5870 5870 5870 5870 5870 5870 5871 5871 5871 5872 5872 5873 5873 5873 5874 5875 5875 5876 5877 5878 5879 5880 5881 5881 5882 5883 5884 5884 5885 5885 5885 5885
5890 5890 5888 5886 5885 5884 5882 5881 5880 5880 5878 5877 5876 5875 5874 5873 5872 5872 5872 5871 5871 5871 5871 5872 5872 5872 5873 5873 5874 5874 5874 5874 5875 5876 5877 5878 5879 5879 5880 5881 5881 5882 5883 5884 5884 5884 5885 5885 5885
5892 5892 5890 5889 5888 5886 5885 5884 5883 5882 5881 5880 5879 5878 5877 5875 5874 5874 5873 5873 5873 5873 5873 5873 5873 5873 5873 5874 5874 5874 5874 5875 5876 5876 5877 5878 5879 5880 5881 5881 5882 5882 5883 5883 5884 5884 5884 5884 5884
5894 5894 5893 5891 5890 5889 5887 5887 5885 5884 5884 5882 5881 5880 5879 5878 5877 5876 5875 5875 5875 5875 5874 5874 5875 5875 5874 5875 5875 5875 5875 5875 5876 5877 5878 5878 5879 5880 5881 5881 5882 5882 5883 5883 5883 5883 5884 5884 5883
5896 5896 5895 5894 5893 5892 5890 5889 5888 5887 5887 5885 5884 5883 5882 5880 5879 5878 5877 5877 5876 5876 5876 5876 5876 5876 5876 5876 5876 5876 5875 5876 5876 5877 5878 5879 5879 5880 5880 5881 5882 5882 5882 5882 5883 5883 5883 5883 5882
5898 5898 5897 5896 5895 5894 5893 5892 5891 5890 5889 5888 5886 5885 5884 5882 5881 5880 5879 5878 5878 5878 5878 5877 5877 5877 5877 5877 5876 5875 5875 5875 5876 5877 5878 5879 5879 5880 5880 5881 5881 5882 5882 5882 5882 5882 5882 5882 5881
5900 5899 5899 5898 5897 5896 5895 5895 5894 5893 5892 5890 5889 5888 5886 5885 5883 5882 5881 5881 5880 5880 5879 5879 5879 5879 5878 5878 5877 5876 5875 5876 5877 5878 5878 5879 5879 5879 5880 5880 5881 5881 5881 5881 5881 5881 5882 5882 5882
5901 5900 5900 5900 5899 5898 5898 5897 5896 5895 5894 5893 5892 5890 5888 5887 5886 5885 5884 5883 5882 5882 5881 5881 5881 5880 5880 5879 5878 5877 5877 5877 5878 5878 5879 5879 5879 5879 5880 5880 5880 5881 5881 5881 5881 5881 5881 5882 5882
5901 5901 5901 5901 5900 5900 5901 5899 5898 5897 5896 5895 5894 5892 5890 5889 5888 5887 5886 5885 5885 5884 5884 5883 5882 5882 5881 5881 5880 5879 5879 5879 5879 5880 5880 5880 5880 5880 5880 5880 5880 5880 5881 5881 5881 5881 5881 5881 5882
5902 5902 5902 5902 5901 5901 5901 5901 5900 5899 5898 5897 5896 5894 5892 5891 5890 5889 5888 5887 5887 5886 5885 5884 5884 5883 5883 5882 5882 5881 5881 5881 5881 5881 5881 5880 5880 5880 5880 5880 5880 5880 5881 5881 5881 5881 5881 5881 5881
5902 5902 5902 5902 5902 5902 5902 5902 5901 5901 5900 5899 5897 5896 5894 5893 5892 5891 5890 5889 5888 5888 5887 5886 5885 5884 5884 5883 5883 5883 5883 5882 5882 5882 5881 5881 5881 5880 5880 5880 5880 5880 5880 5880 5880 5880 5880 5880 5880
5900 5901 5902 5903 5902 5902 5902 5902 5902 5902 5901 5900 5899 5897 5896 5895 5894 5893 5891 5890 5890 5889 5888 5888 5887 5886 5885 5884 5884 5884 5884 5883 5883 5882 5882 5881 5881 5881 5880 5880 5880 5880 5879 5879 5879 5879 5879 5879 5879
5899 5901 5902 5902 5902 5902 5902 5903 5902 5902 5901 5901 5900 5898 5897 5896 5895 5894 5893 5892 5891 5890 5889 5889 5888 5887 5886 5886 5885 5885 5884 5884 5883 5883 5882 5882 5881 5880 5880 5880 5880 5879 5879 5878 5878 5878 5878 5877 5877
5898 5900 5901 5901 5901 5901 5902 5903 5903 5902 5901 5901 5900 5899 5898 5897 5896 5895 5894 5893 5892 5891 5890 5889 5889 5888 5888 5887 5886 5885 5885 5884 5884 5883 5882 5882 5881 5880 5880 5879 5879 5879 5878 5877 5877 5876 5876 5876 5876
5897 5899 5899 5900 5900 5900 5901 5901 5902 5902 5901 5901 5900 5899 5898 5897 5896 5895 5894 5893 5892 5891 5891 5890 5889 5889 5888 5887 5886 5886 5885 5885 5884 5883 5883 5882 5882 5881 5880 5879 5878 5878 5877 5876 5875 5875 5874 5874 5874
5895 5896 5897 5898 5898 5899 5899 5900 5901 5900 5900 5900 5900 5899 5898 5897 5896 5895 5894 5893 5892 5892 5891 5890 5889 5888 5888 5887 5887 5886 5885 5885 5884 5883 5882 5882 5881 5880 5879 5878 5878 5877 5876 5875 5874 5873 5873 5873 5872
5892 5893 5894 5895 5896 5897 5898 5898 5899 5899 5899 5899 5898 5898 5897 5896 5895 5894 5893 5892 5892 5891 5891 5890 5889 5888 5888 5887 5886 5886 5885 5884 5884 5883 5882 5881 5880 5880 5878 5877 5876 5875 5874 5873 5872 5872 5871 5871 5870
5888 5891 5892 5892 5893 5895 5896 5896 5898 5898 5898 5897 5897 5896 5896 5895 5894 5893 5893 5892 5892 5891 5891 5890 5889 5888 5888 5887 5886 5885 5884 5883 5883 5882 5881 5880 5879 5879 5877 5876 5875 5874 5873 5872 5871 5870 5869 5868 5868
5884 5887 5889 5890 5891 5893 5893 5894 5896 5896 5896 5895 5895 5895 5894 5894 5893 5892 5892 5891 5891 5891 5890 5889 5888 5887 5887 5886 5885 5884 5883 5882 5882 5881 5880 5879 5878 5877 5876 5875 5874 5873 5871 5870 5869 5868 5867 5866 5865
5880 5883 5885 5887 5888 5889 5890 5892 5893 5893 5894 5894 5893 5893 5893 5892 5891 5891 5890 5890 5890 5889 5889 5888 5887 5887 5886 5885 5884 5883 5882 5881 5880 5879 5878 5877 5876 5875 5874 5873 5872 5870 5869 5868 5866 5865 5864 5863 5862
5876 5879 5881 5882 5883 5884 5886 5888 5890 5891 5892 5892 5892 5891 5891 5890 5890 5889 5889 5888 5888 5888 5887 5887 5886 5885 5884 5884 5883 5881 5880 5879 5878 5877 5876 5875 5874 5873 5872 5871 5869 5868 5866 5865 5864 5862 5861 5860 5859
5871 5874 5876 5878 5879 5881 5882 5886 5887 5888 5889 5889 5889 5889 5889 5888 5888 5887 5887 5886 5886 5886 5885 5885 5884 5883 5882 5881 5880 5879 5878 5877 5876 5875 5874 5872 5871 5870 5869 5868 5866 5865 5863 5862 5861 5859 5858 5857 5855
5866 5869 5872 5874 5875 5877 5878 5884 5884 5885 5885 5886 5886 5886 5885 5885 5885 5884 5884 5883 5883 5883 5883 5882 5881 5880 5879 5878 5877 5876 5875 5874 5873 5872 5871 5870 5868 5867 5865 5864 5863 5861 5860 5858 5857 5855 5854 5853 5851